TimeCST,TemperatureF,Dew PointF,Humidity,Sea Level PressureIn,VisibilityMPH,Wind Direction,Wind SpeedMPH,Gust SpeedMPH,PrecipitationIn,Events,Conditions,WindDirDegrees,DateUTC
12:12 AM,39.2,28.4,65,30.28,10.0,SE,6.9,-,N/A,,Overcast,140,2012-11-14 06:12:00
12:33 AM,39.2,28.4,65,30.27,10.0,SSE,10.4,-,N/A,,Overcast,160,2012-11-14 06:33:00
12:53 AM,39.2,28.4,65,30.27,10.0,SSE,10.4,-,N/A,,Overcast,160,2012-11-14 06:53:00
1:12 AM,39.2,28.4,65,30.26,10.0,SSE,11.5,-,N/A,,Overcast,160,2012-11-14 07:12:00
1:33 AM,39.2,28.4,65,30.26,10.0,South,10.4,-,N/A,,Overcast,170,2012-11-14 07:33:00
1:53 AM,39.2,28.4,65,30.26,10.0,South,10.4,-,N/A,,Overcast,170,2012-11-14 07:53:00
2:12 AM,39.2,30.2,70,30.26,10.0,South,9.2,-,N/A,,Overcast,170,2012-11-14 08:12:00
2:33 AM,39.2,30.2,70,30.26,10.0,South,10.4,-,N/A,,Overcast,170,2012-11-14 08:33:00
2:53 AM,39.2,30.2,70,30.26,10.0,South,9.2,-,N/A,,Overcast,180,2012-11-14 08:53:00
3:13 AM,39.2,30.2,70,30.26,10.0,South,8.1,-,N/A,,Overcast,190,2012-11-14 09:13:00
3:33 AM,39.2,30.2,70,30.26,10.0,South,5.8,-,N/A,,Overcast,190,2012-11-14 09:33:00
3:53 AM,39.2,30.2,70,30.26,10.0,South,6.9,-,N/A,,Overcast,190,2012-11-14 09:53:00
4:13 AM,39.2,32.0,75,30.26,10.0,South,5.8,-,N/A,,Overcast,190,2012-11-14 10:13:00
4:32 AM,39.2,32.0,75,30.26,10.0,South,5.8,-,N/A,,Overcast,190,2012-11-14 10:32:00
4:53 AM,39.2,32.0,75,30.26,10.0,South,5.8,-,N/A,,Overcast,190,2012-11-14 10:53:00
5:13 AM,37.4,30.2,75,30.26,10.0,South,4.6,-,N/A,,Mostly Cloudy,180,2012-11-14 11:13:00
5:33 AM,35.6,30.2,81,30.26,10.0,Calm,Calm,-,N/A,,Mostly Cloudy,0,2012-11-14 11:33:00
5:53 AM,35.6,30.2,81,30.26,10.0,South,5.8,-,N/A,,Overcast,190,2012-11-14 11:53:00
6:13 AM,35.6,32.0,87,30.26,10.0,South,4.6,-,N/A,,Mostly Cloudy,190,2012-11-14 12:13:00
6:33 AM,35.6,32.0,87,30.26,10.0,South,4.6,-,N/A,,Scattered Clouds,190,2012-11-14 12:33:00
6:53 AM,35.6,30.2,81,30.26,10.0,South,3.5,-,N/A,,Scattered Clouds,170,2012-11-14 12:53:00
7:13 AM,35.6,30.2,81,30.27,10.0,SSW,4.6,-,N/A,,Mostly Cloudy,200,2012-11-14 13:13:00
7:33 AM,35.6,30.2,81,30.27,10.0,South,4.6,-,N/A,,Mostly Cloudy,180,2012-11-14 13:33:00
7:53 AM,35.6,30.2,81,30.27,10.0,South,4.6,-,N/A,,Mostly Cloudy,170,2012-11-14 13:53:00
8:13 AM,35.6,32.0,87,30.28,10.0,South,5.8,-,N/A,,Scattered Clouds,180,2012-11-14 14:13:00
8:33 AM,39.2,32.0,75,30.28,10.0,South,6.9,-,N/A,,Clear,190,2012-11-14 14:33:00
8:53 AM,39.2,32.0,75,30.28,10.0,South,5.8,-,N/A,,Scattered Clouds,190,2012-11-14 14:53:00
9:13 AM,39.2,32.0,75,30.28,10.0,South,4.6,-,N/A,,Mostly Cloudy,190,2012-11-14 15:13:00
9:33 AM,41.0,32.0,70,30.28,10.0,SSW,6.9,-,N/A,,Scattered Clouds,200,2012-11-14 15:33:00
9:53 AM,44.6,32.0,61,30.28,10.0,South,6.9,-,N/A,,Clear,190,2012-11-14 15:53:00
10:13 AM,44.6,32.0,61,30.28,10.0,SSW,8.1,-,N/A,,Clear,200,2012-11-14 16:13:00
10:33 AM,44.6,32.0,61,30.28,10.0,South,8.1,-,N/A,,Clear,180,2012-11-14 16:33:00
10:53 AM,46.4,32.0,57,30.28,10.0,South,9.2,-,N/A,,Clear,180,2012-11-14 16:53:00
11:13 AM,48.2,32.0,54,30.27,10.0,South,9.2,-,N/A,,Clear,190,2012-11-14 17:13:00
11:33 AM,48.2,32.0,54,30.26,10.0,South,6.9,-,N/A,,Clear,190,2012-11-14 17:33:00
11:53 AM,50.0,32.0,50,30.26,10.0,SSW,8.1,-,N/A,,Clear,210,2012-11-14 17:53:00
12:13 PM,51.8,32.0,47,30.25,10.0,SW,8.1,-,N/A,,Clear,220,2012-11-14 18:13:00
12:33 PM,51.8,32.0,47,30.25,10.0,SSW,9.2,-,N/A,,Clear,200,2012-11-14 18:33:00
12:53 PM,51.8,32.0,47,30.24,10.0,SW,6.9,-,N/A,,Clear,220,2012-11-14 18:53:00
1:13 PM,51.8,32.0,47,30.24,10.0,SW,9.2,-,N/A,,Mostly Cloudy,220,2012-11-14 19:13:00
1:33 PM,53.6,32.0,44,30.23,10.0,SSW,6.9,-,N/A,,Overcast,210,2012-11-14 19:33:00
1:53 PM,53.6,32.0,44,30.23,10.0,South,6.9,-,N/A,,Scattered Clouds,190,2012-11-14 19:53:00
2:13 PM,53.6,28.4,38,30.22,10.0,South,10.4,-,N/A,,Scattered Clouds,190,2012-11-14 20:13:00
2:33 PM,53.6,30.2,41,30.23,10.0,SSW,11.5,-,N/A,,Scattered Clouds,210,2012-11-14 20:33:00
2:53 PM,53.6,32.0,44,30.22,10.0,SSW,9.2,-,N/A,,Scattered Clouds,210,2012-11-14 20:53:00
3:13 PM,51.8,30.2,44,30.22,10.0,SSW,5.8,-,N/A,,Clear,210,2012-11-14 21:13:00
3:33 PM,51.8,32.0,47,30.22,10.0,SSW,3.5,-,N/A,,Clear,200,2012-11-14 21:33:00
3:53 PM,51.8,32.0,47,30.21,10.0,Calm,Calm,-,N/A,,Scattered Clouds,0,2012-11-14 21:53:00
4:13 PM,50.0,32.0,50,30.21,10.0,Calm,Calm,-,N/A,,Scattered Clouds,0,2012-11-14 22:13:00
4:33 PM,48.2,32.0,54,30.20,10.0,South,5.8,-,N/A,,Clear,170,2012-11-14 22:33:00
4:53 PM,46.4,32.0,57,30.20,10.0,SSE,5.8,-,N/A,,Mostly Cloudy,160,2012-11-14 22:53:00
5:13 PM,44.6,32.0,61,30.19,10.0,SSE,4.6,-,N/A,,Scattered Clouds,160,2012-11-14 23:13:00
5:33 PM,44.6,32.0,61,30.19,10.0,SSE,3.5,-,N/A,,Clear,160,2012-11-14 23:33:00
5:53 PM,44.6,32.0,61,30.19,10.0,Calm,Calm,-,N/A,,Clear,0,2012-11-14 23:53:00
6:14 PM,41.0,32.0,70,30.19,10.0,SSE,4.6,-,N/A,,Clear,150,2012-11-15 00:14:00
6:33 PM,42.8,32.0,66,30.19,10.0,SSE,4.6,-,N/A,,Clear,150,2012-11-15 00:33:00
6:53 PM,44.6,32.0,61,30.19,10.0,SSE,4.6,-,N/A,,Clear,160,2012-11-15 00:53:00
7:13 PM,42.8,32.0,66,30.19,10.0,SSE,4.6,-,N/A,,Clear,160,2012-11-15 01:13:00
7:33 PM,42.8,32.0,66,30.19,10.0,Calm,Calm,-,N/A,,Clear,0,2012-11-15 01:33:00
7:53 PM,41.0,32.0,70,30.19,10.0,SE,5.8,-,N/A,,Clear,140,2012-11-15 01:53:00
8:33 PM,41.0,32.0,70,30.19,10.0,Calm,Calm,-,N/A,,Clear,0,2012-11-15 02:33:00
8:53 PM,41.0,32.0,70,30.19,10.0,SSE,3.5,-,N/A,,Clear,160,2012-11-15 02:53:00
9:14 PM,39.2,30.2,70,30.19,10.0,Calm,Calm,-,N/A,,Scattered Clouds,0,2012-11-15 03:14:00
9:33 PM,39.2,30.2,70,30.18,10.0,SSE,4.6,-,N/A,,Mostly Cloudy,160,2012-11-15 03:33:00
9:53 PM,41.0,30.2,65,30.19,10.0,SSE,6.9,-,N/A,,Scattered Clouds,160,2012-11-15 03:53:00
10:13 PM,41.0,30.2,65,30.18,10.0,South,6.9,-,N/A,,Clear,170,2012-11-15 04:13:00
10:33 PM,41.0,30.2,65,30.18,10.0,South,5.8,-,N/A,,Scattered Clouds,180,2012-11-15 04:33:00
10:53 PM,41.0,30.2,65,30.18,10.0,South,6.9,-,N/A,,Mostly Cloudy,180,2012-11-15 04:53:00
11:00 PM,41.0,30.2,65,30.18,10.0,South,8.1,-,N/A,,Mostly Cloudy,180,2012-11-15 05:00:00
11:34 PM,42.8,30.2,61,30.18,10.0,South,10.4,-,N/A,,Overcast,180,2012-11-15 05:34:00
11:53 PM,41.0,30.2,65,30.18,10.0,South,9.2,-,N/A,,Overcast,180,2012-11-15 05:53:00